Location: Borojevi?i
(45.0486°N, 16.2297°E)
Time: 10:14:23
(UTC+00:00)

GP-B - Pass Details

Date: 08 August 2020
Orbit: 632 x 635 km, 89.8° (Epoch: 21 September)

Event Time Altitude Azimuth Distance (km) Brightness Sun altitude
Rises 19:44:22 0° 6° (N) 2,944 7.1 -14.6°
Reaches altitude 10° 19:46:39 10° 11° (N) 2,030 6.1 -14.9°
Maximum altitude 19:51:01 52° 88° (E) 788 3.3 -15.5°
Enters shadow 19:53:17 26° 154° (SSE) 1,252 4.1 -15.8°
